Weather History for KLWD - August, 2012

Change the Weather History Date:

Monday, August 6, 2012

  Actual Average Record
Temperature  
Mean Temperature 75 °F 75 °F  
Max Temperature 93 °F 85 °F 100 °F (1984)
Min Temperature 56 °F 65 °F 53 °F (1990)
Degree Days  
Heating Degree Days 0 0  
Month to date heating degree days 0 0  
Since 1 June heating degree days 10 21  
Since 1 July heating degree days 0 2  
Cooling Degree Days 10 10  
Month to date cooling degree days 86 60  
Year to date cooling degree days 1022 623  
Since 1 June cooling degree days 865 569  
Growing Degree Days 25 (Base 50)    
Moisture  
Dew Point 53 °F    
Average Humidity 53    
Maximum Humidity 80    
Minimum Humidity 26    
Precipitation  
Precipitation 0.00 in 0.13 in 2.02 in (2014)
Month to date precipitation 0.23 0.79  
Year to date precipitation 17.26  
Sea Level Pressure  
Sea Level Pressure 30.08 in    
Wind  
Wind Speed 5 mph (SSE)    
Max Wind Speed 13 mph    
Max Gust Speed 31 mph    
Visibility 10 miles    
Events      
T = Trace of Precipitation, MM = Missing Value Source: NWS Daily Summary

Daily Weather History Graph

Daily Weather History Graph

Search for Another Location

Airport or City:

Trip Planner

Search our weather history database for the weather conditions in past years. The results will help you decide how hot, cold, wet, or windy it might be!

Date:

Astronomy

Aug. 06, 2012 Rise Set
Actual Time 6:17 AM CDT 8:24 PM CDT
Civil Twilight 5:47 AM CDT 8:54 PM CDT
Nautical Twilight 5:10 AM CDT 9:31 PM CDT
Astronomical Twilight 4:30 AM CDT 10:11 PM CDT
Moon 10:31 PM CDT (8/6) 11:09 AM CDT (8/6)
Length of Visible Light 15h 06m
Length of Day
14h 06m
Waning Gibbous, 78% of the Moon is Illuminated
Aug 6
Waning Gibbous
Aug 9
Last Quarter
Aug 17
New
Aug 24
First Quarter
Aug 31
Full

Hourly Weather History & Observations

Time (CDT) Temp. Heat Index Dew Point Humidity Pressure Visibility Wind Dir Wind Speed Gust Speed Precip Events Conditions
12:53 AM 64.0 °F - 52.0 °F 65% 30.17 in 10.0 mi East 3.5 mph - 0.01 in   Clear
1:53 AM 64.0 °F - 52.0 °F 65% 30.16 in 10.0 mi ESE 3.5 mph - N/A   Clear
2:53 AM 64.0 °F - 51.1 °F 63% 30.16 in 10.0 mi SE 4.6 mph - N/A   Clear
3:53 AM 62.1 °F - 51.1 °F 67% 30.14 in 10.0 mi SE 5.8 mph - N/A   Clear
4:53 AM 57.9 °F - 51.1 °F 78% 30.14 in 10.0 mi SSE 4.6 mph - N/A   Clear
5:53 AM 60.1 °F - 51.1 °F 72% 30.15 in 10.0 mi Calm Calm - 0.01 in   Clear
6:53 AM 60.1 °F - 51.1 °F 72% 30.15 in 10.0 mi SE 3.5 mph - N/A   Clear
7:53 AM 64.0 °F - 53.1 °F 67% 30.16 in 10.0 mi North - - N/A   Clear
8:53 AM 69.1 °F - 55.0 °F 61% 30.16 in 10.0 mi SSE 8.1 mph - N/A   Clear
9:53 AM 75.9 °F - 55.9 °F 50% 30.16 in 10.0 mi SSE 8.1 mph - N/A   Clear
10:53 AM 80.1 °F 80.4 °F 57.0 °F 45% 30.14 in 10.0 mi SSE 5.8 mph - N/A   Clear
11:53 AM 84.0 °F - 52.0 °F 33% 30.12 in 10.0 mi WSW 3.5 mph - N/A   Clear
12:53 PM 87.1 °F - 52.0 °F 30% 30.10 in 10.0 mi South 6.9 mph - N/A   Clear
1:53 PM 89.1 °F 86.7 °F 53.1 °F 29% 30.08 in 10.0 mi Calm Calm - N/A   Clear
2:53 PM 90.0 °F 87.5 °F 53.1 °F 28% 30.06 in 10.0 mi Calm Calm - N/A   Clear
3:53 PM 91.0 °F - 52.0 °F 26% 30.03 in 10.0 mi SW 5.8 mph - 0.17 in   Clear
4:53 PM 91.9 °F - 52.0 °F 26% 30.01 in 10.0 mi Variable 4.6 mph - N/A   Clear
5:53 PM 93.0 °F 90.6 °F 53.1 °F 26% 29.99 in 10.0 mi South 9.2 mph - N/A   Clear
6:53 PM 91.0 °F 88.5 °F 53.1 °F 27% 29.99 in 10.0 mi SSE 9.2 mph - N/A   Clear
7:53 PM 87.1 °F 85.1 °F 54.0 °F 32% 29.99 in 10.0 mi SSE 5.8 mph - N/A   Clear
8:53 PM 84.0 °F 82.9 °F 55.0 °F 37% 29.98 in 10.0 mi SSE 4.6 mph - N/A   Clear
9:53 PM 80.1 °F 80.2 °F 55.9 °F 43% 30.00 in 10.0 mi South 6.9 mph - 0.02 in   Clear
10:53 PM 77.0 °F - 55.9 °F 48% 29.99 in 10.0 mi South 6.9 mph - 0.01 in   Clear
11:53 PM 73.9 °F - 55.9 °F 53% 29.99 in 10.0 mi SSW 6.9 mph - N/A   Clear